Weather History for KBIX - December, 2014

Change the Weather History Date:

Monday, December 15, 2014

  Actual Average Record
Temperature  
Mean Temperature 57 °F -  
Max Temperature 69 °F 63 °F 77 °F (2007)
Min Temperature 45 °F 45 °F 26 °F (1958)
Degree Days  
Heating Degree Days 8    
Growing Degree Days 7 (Base 50)    
Moisture  
Dew Point 51 °F    
Average Humidity 98    
Maximum Humidity 100    
Minimum Humidity 74    
Precipitation  
Precipitation 0.00 in - - ()
Sea Level Pressure  
Sea Level Pressure 30.07 in    
Wind  
Wind Speed 3 mph (East)    
Max Wind Speed 12 mph    
Max Gust Speed -    
Visibility 4 miles    
Events Fog    
Averages and records for this station are not official NWS values.
T = Trace of Precipitation, MM = Missing Value Source: NWS Daily Summary

Daily Weather History Graph

Daily Weather History Graph

Search for Another Location

Airport or City:

Trip Planner

Search our weather history database for the weather conditions in past years. The results will help you decide how hot, cold, wet, or windy it might be!

Date:

Astronomy

Dec. 15, 2014 Rise Set
Actual Time 6:44 AM CST 4:56 PM CST
Civil Twilight 6:18 AM CST 5:23 PM CST
Nautical Twilight 5:48 AM CST 5:53 PM CST
Astronomical Twilight 5:19 AM CST 6:22 PM CST
Moon 12:27 AM CST (12/15) 12:34 PM CST (12/15)
Length of Visible Light 11h 04m
Length of Day
10h 11m
Last Quarter, 39% of the Moon is Illuminated
Dec 15
Last Quarter
Dec 21
New
Dec 28
First Quarter
Jan 4
Full
Jan 13
Last Quarter

Hourly Weather History & Observations

Time (CST) Temp. Windchill Dew Point Humidity Pressure Visibility Wind Dir Wind Speed Gust Speed Precip Events Conditions
12:03 AM 50.0 °F - 50.0 °F 100% 30.10 in 7.0 mi NNW 1.2 mph - N/A   Clear
12:08 AM 50.0 °F - 50.0 °F 100% 30.10 in 8.0 mi Calm Calm - N/A   Clear
12:13 AM 50.0 °F - 50.0 °F 100% 30.09 in 3.0 mi NE 1.2 mph - N/A   Clear
12:18 AM 50.0 °F - 50.0 °F 100% 30.09 in 2.5 mi NE 2.3 mph - N/A   Clear
12:23 AM 48.2 °F - 48.2 °F 100% 30.09 in 5.0 mi NE 1.2 mph - N/A   Clear
12:28 AM 48.2 °F - 48.2 °F 100% 30.09 in 9.0 mi Calm Calm - N/A   Clear
12:38 AM 48.2 °F - 48.2 °F 100% 30.09 in 6.0 mi NE 1.2 mph - N/A   Clear
12:43 AM 48.2 °F - 48.2 °F 100% 30.08 in 7.0 mi East 2.3 mph - N/A   Clear
12:58 AM 47.5 °F - 47.5 °F 100% 30.09 in 7.0 mi East 2.3 mph - N/A   Clear
1:03 AM 48.2 °F - 48.2 °F 100% 30.08 in 7.0 mi NE 2.3 mph - N/A   Clear
1:33 AM 48.2 °F - 48.2 °F 100% 30.08 in 7.0 mi Calm Calm - N/A   Clear
1:38 AM 48.2 °F - 48.2 °F 100% 30.08 in 4.0 mi Calm Calm - N/A   Clear
1:43 AM 48.2 °F - 48.2 °F 100% 30.08 in 2.0 mi NNE 1.2 mph - N/A   Clear
1:48 AM 48.2 °F - 48.2 °F 100% 30.08 in 0.8 mi Calm Calm - N/A   Clear
1:53 AM 48.2 °F - 48.2 °F 100% 30.08 in 0.5 mi Calm Calm - N/A Fog Fog
1:58 AM 48.2 °F - 48.2 °F 100% 30.08 in 0.5 mi NE 2.3 mph - N/A Fog Fog
2:18 AM 48.2 °F - 48.2 °F 100% 30.07 in 0.2 mi East 2.3 mph - N/A Fog Fog
2:28 AM 46.4 °F - 46.4 °F 100% 30.07 in 0.2 mi ENE 2.3 mph - N/A Fog Fog
2:58 AM 46.8 °F - 46.8 °F 100% 30.09 in 0.2 mi NE 3.5 mph - N/A Fog Fog
3:23 AM 46.4 °F - 46.4 °F 100% 30.07 in 0.2 mi East 2.3 mph - N/A Fog Fog
3:33 AM 46.4 °F - 46.4 °F 100% 30.07 in 0.5 mi ENE 2.3 mph - N/A Fog Fog
3:38 AM 46.4 °F - 46.4 °F 100% 30.07 in 0.5 mi ENE 1.2 mph - N/A Fog Fog
3:53 AM 46.4 °F - 46.4 °F 100% 30.06 in 0.2 mi ENE 2.3 mph - N/A Fog Fog
3:58 AM 46.9 °F - 46.9 °F 100% 30.07 in 0.2 mi ENE 2.3 mph - N/A Fog Fog
4:18 AM 46.4 °F 45.2 °F 46.4 °F 100% 30.06 in 0.5 mi East 3.5 mph - N/A Fog Fog
4:38 AM 46.4 °F - 46.4 °F 100% 30.06 in 0.2 mi NE 1.2 mph - N/A Fog Fog
4:48 AM 46.4 °F 45.2 °F 46.4 °F 100% 30.06 in 0.5 mi ENE 3.5 mph - N/A Fog Fog
4:58 AM 45.9 °F - 45.9 °F 100% 30.07 in 0.5 mi ENE 2.3 mph - N/A Fog Fog
5:03 AM 46.4 °F - 46.4 °F 100% 30.06 in 1.0 mi ENE 2.3 mph - N/A   Mist
5:08 AM 46.4 °F - 46.4 °F 100% 30.06 in 2.0 mi NE 2.3 mph - N/A   Scattered Clouds
5:13 AM 46.4 °F 45.2 °F 46.4 °F 100% 30.07 in 1.5 mi NE 3.5 mph - N/A   Partly Cloudy
5:18 AM 46.4 °F 45.2 °F 46.4 °F 100% 30.07 in 1.8 mi NE 3.5 mph - N/A   Partly Cloudy
5:23 AM 46.4 °F 45.2 °F 46.4 °F 100% 30.07 in 3.0 mi ENE 3.5 mph - N/A   Partly Cloudy
5:28 AM 46.4 °F 44.3 °F 46.4 °F 100% 30.06 in 1.2 mi ENE 4.6 mph - N/A   Scattered Clouds
5:33 AM 46.4 °F 44.3 °F 46.4 °F 100% 30.07 in 0.8 mi ENE 4.6 mph - N/A   Mist
5:38 AM 46.4 °F 44.3 °F 46.4 °F 100% 30.07 in 0.5 mi ENE 4.6 mph - N/A Fog Fog
5:43 AM 46.4 °F 45.2 °F 46.4 °F 100% 30.06 in 0.8 mi East 3.5 mph - N/A   Mist
5:48 AM 46.4 °F - 46.4 °F 100% 30.07 in 0.5 mi East 2.3 mph - N/A Fog Fog
5:58 AM 45.9 °F - 45.9 °F 100% 30.08 in 0.5 mi ENE 2.3 mph - N/A Fog Fog
6:33 AM 46.4 °F - 46.4 °F 100% 30.08 in 0.2 mi ENE 2.3 mph - N/A Fog Fog
6:43 AM 46.4 °F 45.2 °F 46.4 °F 100% 30.07 in 0.2 mi East 3.5 mph - N/A Fog Fog
6:48 AM 46.4 °F 44.3 °F 46.4 °F 100% 30.07 in 0.2 mi East 4.6 mph - N/A Fog Fog
6:58 AM 46.8 °F - 46.8 °F 100% 30.08 in 0.2 mi East 3.5 mph - N/A Fog Fog
7:03 AM 46.4 °F 45.2 °F 46.4 °F 100% 30.07 in 0.5 mi ENE 3.5 mph - N/A Fog Fog
7:13 AM 48.2 °F - 48.2 °F 100% 30.08 in 0.8 mi NE 1.2 mph - N/A   Mist
7:18 AM 48.2 °F - 48.2 °F 100% 30.08 in 1.8 mi NE 2.3 mph - N/A   Partly Cloudy
7:23 AM 48.2 °F - 48.2 °F 100% 30.08 in 3.0 mi NE 2.3 mph - N/A   Partly Cloudy
7:58 AM 50.9 °F - 50.9 °F 100% 30.09 in 10.0 mi ESE 2.3 mph - N/A   Clear
8:58 AM 57.9 °F - 57.9 °F 100% 30.10 in 10.0 mi SE 6.9 mph - N/A   Clear
9:58 AM 63.0 °F - 63.0 °F 100% 30.11 in 10.0 mi SE 9.2 mph - N/A   Clear
10:58 AM 66.7 °F - 58.8 °F 76% 30.09 in 10.0 mi SSE 10.4 mph - N/A   Clear
11:58 AM 67.8 °F - 59.4 °F 74% 30.06 in 10.0 mi South 10.4 mph - N/A   Clear
12:38 PM 68.0 °F - 60.8 °F 78% 30.04 in 10.0 mi South 8.1 mph - N/A   Mostly Cloudy
12:58 PM 69.1 °F - 60.8 °F 75% 30.04 in 7.0 mi South 9.2 mph - N/A   Overcast
1:58 PM 67.5 °F - 61.3 °F 81% 30.02 in 10.0 mi South 8.1 mph - N/A   Overcast
2:58 PM 66.2 °F - 62.6 °F 88% 30.01 in 10.0 mi South 9.2 mph - N/A   Overcast
3:58 PM 66.2 °F - 62.6 °F 88% 30.01 in 10.0 mi South 10.4 mph - N/A   Mostly Cloudy
4:18 PM 66.2 °F - 62.6 °F 88% 30.00 in 10.0 mi South 10.4 mph - N/A   Mostly Cloudy
4:58 PM 64.9 °F - 63.9 °F 96% 30.02 in 10.0 mi South 8.1 mph - N/A   Overcast
5:58 PM 63.7 °F - 63.7 °F 100% 30.03 in 10.0 mi SSW 9.2 mph - N/A   Clear
6:58 PM 63.5 °F - 63.3 °F 99% 30.04 in 10.0 mi SSW 10.4 mph - N/A   Clear
7:58 PM 63.3 °F - 63.3 °F 100% 30.05 in 10.0 mi SW 10.4 mph - N/A   Clear
8:58 PM 62.4 °F - 62.4 °F 100% 30.06 in 10.0 mi SW 11.5 mph - N/A   Clear
9:58 PM 62.4 °F - 62.4 °F 100% 30.06 in 10.0 mi SW 11.5 mph - N/A   Clear
10:58 PM 62.6 °F - 62.6 °F 100% 30.07 in 10.0 mi SW 11.5 mph - N/A   Scattered Clouds
11:58 PM 63.5 °F - 63.5 °F 100% 30.06 in 10.0 mi WSW 10.4 mph - N/A   Clear